Time,TemperatureF,DewpointF,PressureIn,WindDirection,WindDirectionDegrees,WindSpeedMPH,WindSpeedGustMPH,Humidity,HourlyPrecipIn,Conditions,Clouds,dailyrainin,SoftwareType,DateUTC
2013-03-08 00:06:00,16.2,15.7,29.70,East,90,0.0,-999.0,98,-99.99,,,0.00,Acu-Link.com,2013-03-08 07:06:00,
2013-03-08 00:21:00,15.6,15.1,29.70,East,90,2.7,-999.0,98,-99.99,,,0.00,Acu-Link.com,2013-03-08 07:21:00,
2013-03-08 00:37:00,15.3,14.8,29.71,NNW,337,0.0,-999.0,98,-99.99,,,0.00,Acu-Link.com,2013-03-08 07:37:00,
2013-03-08 00:52:00,15.6,15.1,29.70,NNE,22,0.0,-999.0,98,-99.99,,,0.00,Acu-Link.com,2013-03-08 07:52:00,
2013-03-08 01:07:00,15.6,15.1,29.71,ENE,67,0.0,-999.0,98,-99.99,,,0.00,Acu-Link.com,2013-03-08 08:07:00,
2013-03-08 01:22:00,14.9,14.4,29.71,NE,45,0.0,-999.0,98,-99.99,,,0.00,Acu-Link.com,2013-03-08 08:22:00,
2013-03-08 01:38:00,14.4,13.9,29.72,East,90,0.0,-999.0,98,-99.99,,,0.00,Acu-Link.com,2013-03-08 08:38:00,
2013-03-08 01:53:00,14.5,14.0,29.71,NW,315,0.0,-999.0,98,-99.99,,,0.00,Acu-Link.com,2013-03-08 08:53:00,
2013-03-08 02:09:00,15.6,15.1,29.70,NE,45,3.7,-999.0,98,-99.99,,,0.00,Acu-Link.com,2013-03-08 09:09:00,
2013-03-08 02:24:00,16.0,15.5,29.70,East,90,0.0,-999.0,98,-99.99,,,0.00,Acu-Link.com,2013-03-08 09:24:00,
2013-03-08 03:00:00,16.0,15.5,29.70,ENE,67,0.0,-999.0,98,-99.99,,,0.00,Acu-Link.com,2013-03-08 10:00:00,
2013-03-08 03:15:00,15.8,15.3,29.70,NE,45,2.7,-999.0,98,-99.99,,,0.00,Acu-Link.com,2013-03-08 10:15:00,
2013-03-08 03:36:00,15.8,15.3,29.69,NE,45,2.7,-999.0,98,-99.99,,,0.00,Acu-Link.com,2013-03-08 10:36:00,
2013-03-08 03:51:00,16.7,16.2,29.69,NE,45,3.2,-999.0,98,-99.99,,,0.00,Acu-Link.com,2013-03-08 10:51:00,
2013-03-08 04:07:00,16.3,15.8,29.69,NE,45,3.7,-999.0,98,-99.99,,,0.00,Acu-Link.com,2013-03-08 11:07:00,
2013-03-08 04:22:00,16.7,16.2,29.70,NE,45,2.7,-999.0,98,-99.99,,,0.00,Acu-Link.com,2013-03-08 11:22:00,
2013-03-08 04:37:00,17.1,16.6,29.69,NE,45,1.1,-999.0,98,-99.99,,,0.00,Acu-Link.com,2013-03-08 11:37:00,
2013-03-08 04:53:00,16.9,16.4,29.69,NE,45,2.7,-999.0,98,-99.99,,,0.00,Acu-Link.com,2013-03-08 11:53:00,
2013-03-08 05:08:00,17.4,16.9,29.70,SW,225,1.1,-999.0,98,-99.99,,,0.00,Acu-Link.com,2013-03-08 12:08:00,
2013-03-08 05:23:00,17.2,16.7,29.70,East,90,3.2,-999.0,98,-99.99,,,0.00,Acu-Link.com,2013-03-08 12:23:00,
2013-03-08 05:39:00,17.2,16.7,29.71,ENE,67,0.0,-999.0,98,-99.99,,,0.00,Acu-Link.com,2013-03-08 12:39:00,
2013-03-08 05:54:00,17.6,16.2,29.70,East,90,3.2,-999.0,94,-99.99,,,0.00,Acu-Link.com,2013-03-08 12:54:00,
2013-03-08 06:09:00,17.8,16.9,29.69,NE,45,3.7,-999.0,96,-99.99,,,0.00,Acu-Link.com,2013-03-08 13:09:00,
2013-03-08 06:24:00,18.3,15.9,29.69,ESE,112,2.2,-999.0,90,-99.99,,,0.00,Acu-Link.com,2013-03-08 13:24:00,
2013-03-08 06:40:00,18.0,17.3,29.70,NE,45,3.2,-999.0,97,-99.99,,,0.00,Acu-Link.com,2013-03-08 13:40:00,
2013-03-08 06:55:00,21.2,17.7,29.69,NE,45,0.0,-999.0,86,-99.99,,,0.00,Acu-Link.com,2013-03-08 13:55:00,
2013-03-08 07:10:00,21.2,16.3,29.69,SE,135,0.0,-999.0,81,-99.99,,,0.00,Acu-Link.com,2013-03-08 14:10:00,
2013-03-08 07:25:00,19.8,17.1,29.69,East,90,3.7,-999.0,89,-99.99,,,0.00,Acu-Link.com,2013-03-08 14:25:00,
2013-03-08 07:40:00,21.0,16.1,29.69,North,0,1.7,-999.0,81,-99.99,,,0.00,Acu-Link.com,2013-03-08 14:40:00,
2013-03-08 07:55:00,21.2,16.0,29.68,WSW,247,0.0,-999.0,80,-99.99,,,0.00,Acu-Link.com,2013-03-08 14:55:00,
2013-03-08 08:11:00,22.1,16.6,29.68,SSE,157,3.2,-999.0,79,-99.99,,,0.00,Acu-Link.com,2013-03-08 15:11:00,
2013-03-08 08:26:00,28.0,19.2,29.66,NE,45,0.0,-999.0,69,-99.99,,,0.00,Acu-Link.com,2013-03-08 15:26:00,
2013-03-08 08:41:00,29.5,19.2,29.66,South,180,2.2,-999.0,65,-99.99,,,0.00,Acu-Link.com,2013-03-08 15:41:00,
2013-03-08 08:57:00,27.9,19.1,29.65,East,90,2.7,-999.0,69,-99.99,,,0.00,Acu-Link.com,2013-03-08 15:57:00,
2013-03-08 09:12:00,32.9,21.7,29.64,NNE,22,0.0,-999.0,63,-99.99,,,0.00,Acu-Link.com,2013-03-08 16:12:00,
2013-03-08 09:28:00,31.6,20.1,29.63,East,90,2.7,-999.0,62,-99.99,,,0.00,Acu-Link.com,2013-03-08 16:28:00,
2013-03-08 09:43:00,34.3,21.9,29.63,NE,45,4.2,-999.0,60,-99.99,,,0.00,Acu-Link.com,2013-03-08 16:43:00,
2013-03-08 09:58:00,33.6,21.6,29.61,ENE,67,3.7,-999.0,61,-99.99,,,0.00,Acu-Link.com,2013-03-08 16:58:00,
2013-03-08 10:13:00,34.9,21.2,29.59,NE,45,5.3,-999.0,57,-99.99,,,0.00,Acu-Link.com,2013-03-08 17:13:00,
2013-03-08 10:28:00,36.7,22.1,29.57,ENE,67,3.7,-999.0,55,-99.99,,,0.00,Acu-Link.com,2013-03-08 17:28:00,
2013-03-08 10:44:00,38.7,23.9,29.57,ESE,112,3.7,-999.0,55,-99.99,,,0.00,Acu-Link.com,2013-03-08 17:44:00,
2013-03-08 10:59:00,39.9,25.1,29.55,ESE,112,3.7,-999.0,55,-99.99,,,0.00,Acu-Link.com,2013-03-08 17:59:00,
2013-03-08 11:14:00,40.8,25.0,29.54,ESE,112,4.7,-999.0,53,-99.99,,,0.00,Acu-Link.com,2013-03-08 18:14:00,
2013-03-08 11:29:00,39.7,24.4,29.55,East,90,6.8,-999.0,54,-99.99,,,0.00,Acu-Link.com,2013-03-08 18:29:00,
2013-03-08 11:45:00,38.5,25.0,29.53,East,90,5.3,-999.0,58,-99.99,,,0.00,Acu-Link.com,2013-03-08 18:45:00,
2013-03-08 12:00:00,36.9,22.7,29.52,ENE,67,0.0,-999.0,56,-99.99,,,0.00,Acu-Link.com,2013-03-08 19:00:00,
2013-03-08 12:15:00,38.1,22.5,29.53,SSE,157,1.1,-999.0,53,-99.99,,,0.00,Acu-Link.com,2013-03-08 19:15:00,
2013-03-08 12:30:00,39.9,25.1,29.51,South,180,3.2,-999.0,55,-99.99,,,0.00,Acu-Link.com,2013-03-08 19:30:00,
2013-03-08 12:46:00,38.7,25.6,29.51,SW,225,4.2,-999.0,59,-99.99,,,0.00,Acu-Link.com,2013-03-08 19:46:00,
2013-03-08 13:01:00,39.7,26.6,29.51,SSW,202,3.2,-999.0,59,-99.99,,,0.00,Acu-Link.com,2013-03-08 20:01:00,
2013-03-08 13:16:00,39.9,25.1,29.48,SSW,202,3.2,-999.0,55,-99.99,,,0.00,Acu-Link.com,2013-03-08 20:16:00,
2013-03-08 13:31:00,40.1,24.8,29.47,West,270,3.2,-999.0,54,-99.99,,,0.00,Acu-Link.com,2013-03-08 20:31:00,
2013-03-08 13:46:00,39.2,25.3,29.49,ESE,112,2.7,-999.0,57,-99.99,,,0.00,Acu-Link.com,2013-03-08 20:46:00,
2013-03-08 14:02:00,39.0,25.5,29.47,NE,45,5.8,-999.0,58,-99.99,,,0.00,Acu-Link.com,2013-03-08 21:02:00,
2013-03-08 14:17:00,39.2,26.5,29.46,NE,45,4.7,-999.0,60,-99.99,,,0.00,Acu-Link.com,2013-03-08 21:17:00,
2013-03-08 14:32:00,40.5,26.5,29.45,NE,45,5.3,-999.0,57,-99.99,,,0.00,Acu-Link.com,2013-03-08 21:32:00,
2013-03-08 14:47:00,41.9,26.9,29.44,ENE,67,3.7,-999.0,55,-99.99,,,0.00,Acu-Link.com,2013-03-08 21:47:00,
2013-03-08 15:03:00,41.7,27.2,29.43,ENE,67,4.7,-999.0,56,-99.99,,,0.00,Acu-Link.com,2013-03-08 22:03:00,
2013-03-08 15:18:00,40.8,28.0,29.43,SSE,157,0.0,-999.0,60,-99.99,,,0.00,Acu-Link.com,2013-03-08 22:18:00,
2013-03-08 15:33:00,43.5,27.5,29.41,SSE,157,1.7,-999.0,53,-99.99,,,0.00,Acu-Link.com,2013-03-08 22:33:00,
2013-03-08 15:49:00,40.8,27.6,29.40,SSW,202,0.0,-999.0,59,-99.99,,,0.00,Acu-Link.com,2013-03-08 22:49:00,
2013-03-08 16:04:00,42.8,28.2,29.40,NNE,22,0.0,-999.0,56,-99.99,,,0.00,Acu-Link.com,2013-03-08 23:04:00,
2013-03-08 16:19:00,40.5,28.1,29.39,SSW,202,0.0,-999.0,61,-99.99,,,0.00,Acu-Link.com,2013-03-08 23:19:00,
2013-03-08 16:34:00,40.8,27.6,29.39,SSE,157,3.2,-999.0,59,-99.99,,,0.00,Acu-Link.com,2013-03-08 23:34:00,
2013-03-08 16:49:00,43.5,28.4,29.37,NNE,22,0.0,-999.0,55,-99.99,,,0.00,Acu-Link.com,2013-03-08 23:49:00,
2013-03-08 17:05:00,41.7,28.9,29.38,SW,225,0.0,-999.0,60,-99.99,,,0.00,Acu-Link.com,2013-03-09 00:05:00,
2013-03-08 17:20:00,40.3,28.3,29.37,North,0,1.1,-999.0,62,-99.99,,,0.00,Acu-Link.com,2013-03-09 00:20:00,
2013-03-08 17:36:00,39.0,28.6,29.38,SSW,202,0.0,-999.0,66,-99.99,,,0.00,Acu-Link.com,2013-03-09 00:36:00,
2013-03-08 17:51:00,37.9,28.3,29.38,NE,45,1.7,-999.0,68,-99.99,,,0.00,Acu-Link.com,2013-03-09 00:51:00,
2013-03-08 18:06:00,35.6,29.4,29.39,SE,135,0.0,-999.0,78,-99.99,,,0.00,Acu-Link.com,2013-03-09 01:06:00,
2013-03-08 18:22:00,34.5,30.8,29.37,ENE,67,2.7,-999.0,86,-99.99,,,0.00,Acu-Link.com,2013-03-09 01:22:00,
2013-03-08 18:37:00,35.1,29.6,29.38,NNE,22,3.7,-999.0,80,-99.99,,,0.00,Acu-Link.com,2013-03-09 01:37:00,
2013-03-08 18:52:00,34.9,30.9,29.37,NE,45,4.2,-999.0,85,-99.99,,,0.00,Acu-Link.com,2013-03-09 01:52:00,
2013-03-08 19:07:00,35.6,28.5,29.35,NNW,337,2.7,-999.0,75,-99.99,,,0.00,Acu-Link.com,2013-03-09 02:07:00,
2013-03-08 19:22:00,36.3,30.1,29.36,NE,45,4.2,-999.0,78,-99.99,,,0.00,Acu-Link.com,2013-03-09 02:22:00,
2013-03-08 19:38:00,37.9,29.0,29.39,SSE,157,8.3,-999.0,70,-99.99,,,0.00,Acu-Link.com,2013-03-09 02:38:00,
2013-03-08 19:53:00,37.6,30.7,29.40,SE,135,9.4,-999.0,76,-99.99,,,0.00,Acu-Link.com,2013-03-09 02:53:00,
2013-03-08 20:08:00,34.0,33.5,29.41,South,180,4.2,-999.0,98,-99.99,,,0.00,Acu-Link.com,2013-03-09 03:08:00,
2013-03-08 20:23:00,31.3,30.8,29.41,WSW,247,7.8,-999.0,98,-99.99,,,0.00,Acu-Link.com,2013-03-09 03:23:00,
2013-03-08 20:38:00,30.9,30.4,29.40,SSW,202,4.7,-999.0,98,-99.99,,,0.00,Acu-Link.com,2013-03-09 03:38:00,
2013-03-08 20:54:00,30.9,30.4,29.40,SSW,202,2.2,-999.0,98,-99.99,,,0.00,Acu-Link.com,2013-03-09 03:54:00,
2013-03-08 21:09:00,30.4,29.9,29.38,SSE,157,2.2,-999.0,98,-99.99,,,0.00,Acu-Link.com,2013-03-09 04:09:00,
2013-03-08 21:24:00,30.2,29.7,29.38,SSE,157,0.0,-999.0,98,-99.99,,,0.00,Acu-Link.com,2013-03-09 04:24:00,
2013-03-08 21:40:00,29.3,28.8,29.38,NNW,337,0.0,-999.0,98,-99.99,,,0.00,Acu-Link.com,2013-03-09 04:40:00,
2013-03-08 21:55:00,29.3,28.8,29.37,NNW,337,4.2,-999.0,98,-99.99,,,0.00,Acu-Link.com,2013-03-09 04:55:00,
2013-03-08 22:10:00,29.1,28.6,29.37,West,270,0.0,-999.0,98,-99.99,,,0.00,Acu-Link.com,2013-03-09 05:10:00,
2013-03-08 22:26:00,28.8,28.3,29.38,North,0,2.2,-999.0,98,-99.99,,,0.00,Acu-Link.com,2013-03-09 05:26:00,
2013-03-08 22:41:00,28.4,27.9,29.37,NNW,337,0.0,-999.0,98,-99.99,,,0.00,Acu-Link.com,2013-03-09 05:41:00,
2013-03-08 22:56:00,27.5,27.0,29.36,South,180,0.0,-999.0,98,-99.99,,,0.00,Acu-Link.com,2013-03-09 05:56:00,
2013-03-08 23:12:00,27.0,26.5,29.36,SW,225,0.0,-999.0,98,-99.99,,,0.00,Acu-Link.com,2013-03-09 06:12:00,
2013-03-08 23:27:00,27.3,26.8,29.36,West,270,2.2,-999.0,98,-99.99,,,0.00,Acu-Link.com,2013-03-09 06:27:00,
2013-03-08 23:42:00,27.5,27.0,29.36,West,270,0.0,-999.0,98,-99.99,,,0.00,Acu-Link.com,2013-03-09 06:42:00,
2013-03-08 23:58:00,27.3,26.8,29.36,SSW,202,0.0,-999.0,98,-99.99,,,0.00,Acu-Link.com,2013-03-09 06:58:00,